Regional Weather Roundup
Issued by NWS

Home | Current Version | Previous Version | Text Only | Print | Product List | Glossary Off
Versions: 1 2 3 4 5 6 7 8 9 10 11 12 13 14 15 16 17 18 19 20 21 22 23 24 25 26 27 28

000
ASUS45 KCYS 272310
RWRWY

WYOMING REGIONAL WEATHER ROUNDUP
NATIONAL WEATHER SERVICE CHEYENNE WY
500 PM MDT WED JUL 27 2016

NOTE:  "FAIR" INDICATES FEW OR NO CLOUDS BELOW 12,000 FEET
WITH NO SIGNIFICANT WEATHER AND/OR OBSTRUCTIONS TO VISIBILITY.

WYZ001-280000-
YELLOWSTONE NATIONAL PARK

CITY           SKY/WX    TMP DP  RH WIND       PRES   REMARKS
LK YELLOWSTONE   N/A     76  24  14 VRB7      30.36F
W YELLOWSTONE  NOT AVBL

$$
WYZ002>013-054>058-071-098>099-280000-
NORTHERN WYOMING

CITY           SKY/WX    TMP DP  RH WIND       PRES   REMARKS
JACKSON        SUNNY     86  30  13 SW12G17   30.24F
CODY           FAIR      84  46  26 CALM      30.15F
GREYBULL       FAIR      93  35  13 N12G17    30.04F
WORLAND        FAIR      91  38  15 NE9       30.06F
SHERIDAN       FAIR      89  49  25 NE6       30.11S
BUFFALO        FAIR      86  49  27 NW9       30.17F
GILLETTE       PTSUNNY   79  53  40 NE13      30.12F THUNDER
HULETT         FAIR      82  50  32 E8        30.16S
NEWCASTLE      FAIR      82  46  28 E5        30.11F

$$
WYZ014>020-022>026-101>103-280000-
CENTRAL WYOMING

CITY           SKY/WX    TMP DP  RH WIND       PRES   REMARKS
BIG PINEY      FAIR      88  26  10 NW12G18   30.27F
PINEDALE       FAIR      86  27  11 NW17G23   30.29S
DUBOIS         FAIR      82  23  11 N14G23    30.27F
LANDER         FAIR      90  38  16 E9        30.13F
RIVERTON       FAIR      89  35  14 SE6       30.14F
CASPER         FAIR      91  34  13 VRB3      30.13F
DOUGLAS          N/A    N/A N/A N/A MISG      30.13F

$$
WYZ021-027>030-104>119-280000-
SOUTHERN WYOMING

CITY           SKY/WX    TMP DP  RH WIND       PRES   REMARKS
EVANSTON       FAIR      88  21   8 NW15G23   30.31F
KEMMERER         N/A    N/A N/A N/A W15G24    30.32F
FORT BRIDGER   FAIR      89  18   7 W20G26    30.33F
ROCK SPRINGS   FAIR      91   6   4 W17       30.23F
DIXON          FAIR      92  20   7 NW7G14    30.25S
RAWLINS        FAIR      88  25  10 VRB3      30.25F
SARATOGA       FAIR      86  27  11 NW12G18   30.28F
LARAMIE        FAIR      86  24  10 N16G23    30.27S
CHEYENNE       FAIR      78  54  43 E10       30.22S
TORRINGTON     FAIR      89  50  26 S14       30.08F
PINE BLUFFS    LGT RAIN  82  52  34 E8        30.13F

$$




USA.gov is the U.S. government's official web portal to all federal, state and local government web resources and services.